sat.trackr.live / text

‹ back to catalog

2025-013E

NORAD 62733 · 2025-013E

PAYLOAD ACTIVE UNKNOWN

§ Identity

Operator
Country
PRC
Launch date
2025-01-20
Launch site
JSC
Launch vehicle
Mass (kg)
RCS (m²)

External: N2YO · Heavens-Above · Gunter

§ Orbital elements

Epoch: 2026-05-25T04:09:57.943584Z

Period
95.31 min
Inclination
97.6551°
Eccentricity
0.0010115
Mean motion
15.10907681 rev/d
Perigee alt
526.4 km
Apogee alt
540.4 km
Semi-major
6,911.6 km
B*
1.7241e-4
RAAN
314.5170°
Arg perigee
96.7559°
Mean anomaly
263.4822°
Rev number
7,374

§ Raw data

2025-013E1 62733U 25013E   26145.17358731  .00002809  00000+0  17241-3 0  99912 62733  97.6551 314.5170 0010115  96.7559 263.4822 15.10907681 73742

JSON: /api/v1/satellites/62733 · /tle

For live sub-satellite position, see the globe view (requires WebGL).

§ Visibility from observer

Set your observer location to see the next 7 days of passes ≥ 10°. The values pass through the URL so the page stays shareable.

No JS? Fill the form by hand. The geolocation button needs JavaScript.